Rbgn^[z[y[W
メイン
   新天体発見情報
     Comet P/2018 L5 (Leonard)
投稿するにはまず登録を

スレッド表示 | 新しいものから 前のトピック | 次のトピック | 下へ
投稿者 スレッド
佐藤裕久
投稿日時: 2018-7-10 7:11
モデレータ
登録日: 2005-6-12
居住地: 日本
投稿: 2505
オンライン
Comet P/2018 L5 (Leonard)

G. J. Leonardの通報によると、6月14日、細い巻雲によりむしろ貧弱な観測する状況下、Mt Lemmon
の1.5-m 反射望遠鏡で得たCCD画像から彗星を発見した。この天体は、4枚の30秒露出で6"-8"の拡散
したコマとp.a. 210-240°にわたって約10"-12"の幅広い尾が見える。
小惑星センターのNEOCPとPCCP webpageに公表後、R. A. Mastaler (6月17.4日UT, Spacewatch 0.9-m
f/3 反射望遠鏡, Kitt Peak, この彗星は、明らかに拡散して、p.a. 約260-270°に広がった不明瞭
な尾が見える)らCCD位置観測者によって彗星状と観測された。
Palomarにある1.2-m Schmidt望遠鏡による6月8日と13日の発見前の観測があった。

発見位置は次のとおり、

     2018 UT             R.A. (2000) Decl.       Mag.   Observer
     June 14.42257   23 27 36.82   - 0 55 18.9   18.5   Leonard
          14.42736   23 27 37.08   - 0 55 16.9   19.2     "
          14.43396   23 27 37.59   - 0 55 13.6   18.6     "
          14.46436   23 27 39.58   - 0 54 59.0   18.5     "

楕円軌道要素と位置推算表は次のとおり、

Orbital elements:
    P/2018 L5 (Leonard)
Epoch 2018 May 2.0 TT = JDT 2458240.5
T 2018 May 5.06416 TT                                   MPCW
q   2.2955244            (2000.0)            P               Q
n   0.15106513     Peri.   94.20294     +0.68040038     +0.73244334
a   3.4916166      Node   218.70831     -0.68674587     +0.62576682
e   0.3425612      Incl.    2.21105     -0.25580350     +0.26822127
P   6.52
From 56 observations 2018 June 8-July 1, mean residual 0".5.

    P/2018 L5 (Leonard)
Epoch 2024 Nov. 26.0 TT = JDT 2460640.5
T 2024 Nov. 17.77073 TT                                 MPCW
q   2.2990754            (2000.0)            P               Q
n   0.15092095     Peri.   94.53595     +0.68317641     +0.72985649
a   3.4938402      Node   218.59277     -0.68436680     +0.62839887
e   0.3419632      Incl.    2.21169     -0.25477849     +0.26911775
P   6.53
From 56 observations 2018 June 8-July 1, mean residual 0".5.

    P/2018 L5 (Leonard)
Epoch 2018 Mar. 23.0 TT = JDT 2458200.5
T 2018 May 5.05799 TT                                   MPCW
q   2.2955272            (2000.0)            P               Q
n   0.15106539     Peri.   94.20064     +0.68037444     +0.73246742
a   3.4916127      Node   218.70858     -0.68676804     +0.62574243
e   0.3425596      Incl.    2.21105     -0.25581298     +0.26821238
P   6.52
From 56 observations 2018 June 8-July 1, mean residual 0".5.

Ephemeris:
    P/2018 L5 (Leonard)
Date    TT    R. A. (2000) Decl.     Delta      r     Elong.  Phase   m1
2018 06 01    23 11 04.0 -02 48 20   2.2024  2.3025    82.6    25.9  19.8
...
2018 06 16    23 29 22.8 -00 42 59   2.0441  2.3123    91.9    26.0  19.7
...
2018 06 24    23 37 44.4 +00 15 32   1.9610  2.3193    97.2    25.8  19.6
...
2018 06 30    23 43 16.8 +00 54 50   1.9000  2.3252   101.4    25.4  19.6
2018 07 01    23 44 08.3 +01 00 58   1.8900  2.3263   102.1    25.3  19.5
2018 07 02    23 44 58.6 +01 06 59   1.8800  2.3274   102.8    25.2  19.5
...
2018 07 08    23 49 35.5 +01 40 17   1.8210  2.3342   107.3    24.6  19.5
...
2018 07 16    23 54 32.3 +02 16 41   1.7455  2.3442   113.5    23.4  19.4
...
2018 07 31    23 59 43.6 +02 57 06   1.6186  2.3660   126.3    20.2  19.3

(CBET 4528、MPEC 2018-N04)

スレッド表示 | 新しいものから 前のトピック | 次のトピック | トップ

投稿するにはまず登録を
 
© 1999 Tsutomu Seki.